Address 0xa7872f363343ebab6866beea331e78530d21d70b

Txn Hash Method
Block
From
To
Value [Txn Fee]
0x4d6371c789626010524df5d02f9b4db96538668c012e8b44e5846fda78cbb8fcSwap Exact Token...134468332024-04-12 11:52:005 days 39 mins ago0xa7872f363343ebab6866beea331e78530d21d70bOUT EbisusBay: Ryoshi Router0 CRO0.716510596 5,092
0x9e04f03a1d57f0a8120cf025011be893d60bae99dc93e1aa984b6d990f76bf7aApprove134468292024-04-12 11:51:375 days 39 mins ago0xa7872f363343ebab6866beea331e78530d21d70bOUT EbisusBay: RYOSHI Token0 CRO0.237297384 5,092
0x0a83197bc08e5bbf97434dc2d3fe90fd0ed6f68fd65d0971b40faa4d04b3fc83Swap Exact Token...134468232024-04-12 11:51:035 days 40 mins ago0xa7872f363343ebab6866beea331e78530d21d70bOUT EbisusBay: Ryoshi Router0 CRO0.741680352 5,092
0x6da3ffff63f34ee9e65cb4926dfac3cf26245759603662b4035a06f402d1c64cApprove134468202024-04-12 11:50:465 days 40 mins ago0xa7872f363343ebab6866beea331e78530d21d70bOUT 0x55a28c7d18966bdfbbc9464a24631e9a59b618180 CRO0.237383948 5,092
0x986f178bdb3d9961b1f1fd1e288ea1b20c115dff334930f223a205b1c30f0306Multicall130328822024-03-16 10:39:2632 days 1 hr ago0xa7872f363343ebab6866beea331e78530d21d70bOUT VVS Finance : Smart Router0 CRO0.673656324 5,092
0x94543ed86868cf945df08c4be1b869c382a0f85eb70334ad93f033c2ad27159fApprove130328742024-03-16 10:38:4132 days 1 hr ago0xa7872f363343ebab6866beea331e78530d21d70bOUT Bonded Cronos: bCRO Token0 CRO0.237221004 5,092
0x3f6cea4aafc7f8d9c39c170683788e7059dfa83815a461a89183d9c9da2feacdMulticall130266932024-03-16 0:59:2832 days 11 hrs ago0xa7872f363343ebab6866beea331e78530d21d70bOUT VVS Finance : Smart Router600 CRO0.687888464 5,092
0x7828abb7070ec3e7ef8e3bd8abce26a8922c97b44ccbb60b80f9ffabc81ead9fSwap Exact Token...128244262024-03-02 23:51:5245 days 12 hrs ago0xa7872f363343ebab6866beea331e78530d21d70bOUT Mad Meerkat Finance: Master Meerkat & Router0 CRO1.058715861 10,001
0x097c2d7ecbd81aec51ec97cddcd9b52d671620778bfeb061db3a66ecc57c6f17Swap Exact ETH F...128244222024-03-02 23:51:3045 days 12 hrs ago0xa7872f363343ebab6866beea331e78530d21d70bOUT Mad Meerkat Finance: Master Meerkat & Router500 CRO1.254005388 10,001
0x8d354c19dde5c313f59f1e241a83b5ac66cd1af6b157391529a9c64b1ab260faSwap Exact Token...128244172024-03-02 23:51:0245 days 12 hrs ago0xa7872f363343ebab6866beea331e78530d21d70bOUT Mad Meerkat Finance: Master Meerkat & Router0 CRO1.058595849 10,001
0xf18d1a2c9dea1546d543d4b5961755a01c525f1ceaf420d9b7d992634c2858b2Transfer126447962024-02-20 9:07:0457 days 3 hrs ago0x43512d98e25affea05e97b31d409fd84b136ba58 IN 0xa7872f363343ebab6866beea331e78530d21d70b1,000 CRO0.210021 10,001
0xe0dbe9e405a877604837c7fad95ccea08d52c8a82030f615bd071d8d1da0a93aSwap Tokens For ...126211232024-02-18 20:07:4358 days 16 hrs ago0xa7872f363343ebab6866beea331e78530d21d70bOUT Mad Meerkat Finance: Master Meerkat & Router0 CRO1.107120701 10,001
0xa0cfc7c073777880672b94287a72a22b5aa9dfab498ae2b826ed0cf214f10917Swap Tokens For ...126001732024-02-17 11:23:2260 days 1 hr ago0xa7872f363343ebab6866beea331e78530d21d70bOUT Mad Meerkat Finance: Master Meerkat & Router0 CRO1.107120701 10,001
0x357493f54eb93b427a5ddc390c24203113d3aa15bc455f7886062afcc6f09b6aSwap Tokens For ...125843852024-02-16 10:42:1761 days 1 hr ago0xa7872f363343ebab6866beea331e78530d21d70bOUT Mad Meerkat Finance: Master Meerkat & Router0 CRO1.278017789 10,001
0xd469c9157f67b610555619f8f9808c03a4292d8fb9f61175114699870e1c951fApprove125843662024-02-16 10:40:2961 days 1 hr ago0xa7872f363343ebab6866beea331e78530d21d70bOUT Bonded Cronos: bCRO Token0 CRO0.465916587 10,001
0x2a9dc134e27ca1781a952e8ad1bf9a8067e7155cf395536cdaa43df90eff2468Swap ETH For Exa...125843502024-02-16 10:39:0261 days 1 hr ago0xa7872f363343ebab6866beea331e78530d21d70bOUT Mad Meerkat Finance: Master Meerkat & Router47.052834647584005 CRO1.32773276 10,001
0xc5427ee80beb3983807b875df22bd6332c5049e9e3542ce0029abb806b638687Set Approval For...125266052024-02-12 16:22:4664 days 20 hrs ago0xa7872f363343ebab6866beea331e78530d21d70bOUT 0xbea2f7082ad9b5e1138d5e94e00fbc63d7ec86120 CRO0.46184618 10,001
0xf32b7e5f9dd6d0a2f32ece7b7a4f2a798089853e1be3091001028574c2ced91bAttack Faction120199292024-01-10 17:21:0297 days 19 hrs ago0xa7872f363343ebab6866beea331e78530d21d70bOUT EbisusBay: Battlefield0 CRO0.892594994 10,097
0x05543dc68c8240422e3216e78d95c552f5a6a164ce39bf463fa2f81e285988bfAttack Faction120198262024-01-10 17:11:2397 days 19 hrs ago0xa7872f363343ebab6866beea331e78530d21d70bOUT EbisusBay: Battlefield0 CRO0.941181758 10,097
0xbe66ad8d248f172a651b5e78ab8d8bd9914d102988bf152664fb684ed162eb2aAttack Faction120197452024-01-10 17:03:4797 days 19 hrs ago0xa7872f363343ebab6866beea331e78530d21d70bOUT EbisusBay: Battlefield0 CRO0.892594994 10,097
0x96cc14ddff2f38b3b958813fe803c348c68c9501c6eb6aa5e2478dc995be0bceSet Approval For...120197412024-01-10 17:03:2597 days 19 hrs ago0xa7872f363343ebab6866beea331e78530d21d70bOUT EbisusBay: Ryoshi Resources0 CRO0.516734169 10,097
0xa705fdced3a33dce70d749f0380ec57454a33a2dae0ee6f464d88e307f4502acStart Stake118830212024-01-01 19:42:22106 days 16 hrs ago0xa7872f363343ebab6866beea331e78530d21d70bOUT EbisusBay: Barracks0 CRO4.329351272 10,097
0x0d757b4a322457365df993a107d7649d18df3aa6bfefda410c85f4afd7dc66c7Set Approval For...118830152024-01-01 19:41:49106 days 16 hrs ago0xa7872f363343ebab6866beea331e78530d21d70bOUT EbisusBay: Ryoshi VIP0 CRO0.467481003 10,097
0x49b81c00f24b532ac0fbabf1904a016509273d124169efc81a6caf8a1ce32520Unlock118829652024-01-01 19:37:10106 days 16 hrs ago0xa7872f363343ebab6866beea331e78530d21d70bOUT 0xf72a5d62b0a8aac8ee2e4c57b35bd775637d52af0 CRO0.96426822952 10,094.09
0x4c522369833639664b9a7a501f34723274674887bf0a5874c66c67549d272ed6Unlock118829572024-01-01 19:36:25106 days 16 hrs ago0xa7872f363343ebab6866beea331e78530d21d70bOUT 0xf72a5d62b0a8aac8ee2e4c57b35bd775637d52af0 CRO1.010366947205 10,070.637780138
[ Download CSV Export 
Latest 4 internal transactions
Parent Txn Hash Block From To Value
0x4d6371c789626010524df5d02f9b4db96538668c012e8b44e5846fda78cbb8fc134468332024-04-12 11:52:005 days 39 mins ago EbisusBay: Ryoshi Router0xa7872f363343ebab6866beea331e78530d21d70b194.688269182192122299 CRO
0x0a83197bc08e5bbf97434dc2d3fe90fd0ed6f68fd65d0971b40faa4d04b3fc83134468232024-04-12 11:51:035 days 40 mins ago EbisusBay: Ryoshi Router0xa7872f363343ebab6866beea331e78530d21d70b3.392090070436362707 CRO
0x986f178bdb3d9961b1f1fd1e288ea1b20c115dff334930f223a205b1c30f0306130328822024-03-16 10:39:2632 days 1 hr ago VVS Finance : Smart Router0xa7872f363343ebab6866beea331e78530d21d70b649.974774366757680851 CRO
0x2a9dc134e27ca1781a952e8ad1bf9a8067e7155cf395536cdaa43df90eff2468125843502024-02-16 10:39:0261 days 1 hr ago Mad Meerkat Finance: Master Meerkat & Router0xa7872f363343ebab6866beea331e78530d21d70b0.234093704714348284 CRO
[ Download CSV Export 
Index Block
Loading

Contract Name:
0

Compiler Version
0

Optimization Enabled:
0

Other Settings:
-NA-
Block Transaction Gas Used Reward
Age Block Fee Address BC Fee Address Voting Power Jailed Incoming
Block Uncle Number Difficulty Gas Used Reward
Loading
Loading
Make sure to use the "Vote Down" button for any spammy posts, and the "Vote Up" for interesting conversations.